Beaufort, NC

5:25 AM EDT on September 21, 2019 (GMT -0400)
Smith

Weather History for KMRH - August, 2019

Change the Weather History Date:

Sunday, August 18, 2019

  Actual Average Record
Temperature  
Mean Temperature 80 °F -  
Max Temperature 84 °F 87 °F 96 °F (1988)
Min Temperature 77 °F 71 °F 58 °F (1979)
Cooling Degree Days 16    
Growing Degree Days 30 (Base 50)    
Moisture  
Dew Point 76 °F    
Average Humidity 85    
Maximum Humidity 94    
Minimum Humidity 74    
Precipitation  
Precipitation 0.62 in - - ()
Sea Level Pressure  
Sea Level Pressure 30.00 in    
Wind  
Wind Speed 15 mph (SW)    
Max Wind Speed 23 mph    
Max Gust Speed 33 mph    
Visibility 9 miles    
Events Rain , Thunderstorm    
Averages and records for this station are not official NWS values.
T = Trace of Precipitation, MM = Missing Value Source: NWS Daily Summary

Daily Weather History Graph

Daily Weather History Graph

Search for Another Location

Airport or City:

Astronomy

Aug. 18, 2019 Rise Set
Actual Time 6:29 AM EDT 7:51 PM EDT
Civil Twilight 6:02 AM EDT 8:17 PM EDT
Nautical Twilight 5:30 AM EDT 8:49 PM EDT
Astronomical Twilight 4:57 AM EDT 9:22 PM EDT
Moon 9:51 PM EDT (8/18) 9:07 AM EDT (8/18)
Length of Visible Light 14h 15m
Length of Day
13h 22m
Waning Gibbous, 91% of the Moon is Illuminated
Aug 18
Waning Gibbous
Aug 23
Last Quarter
Aug 30
New
Sep 5
First Quarter
Sep 14
Full

Hourly Weather History & Observations

Time (EDT) Temp. Heat Index Dew Point Humidity Pressure Visibility Wind Dir Wind Speed Gust Speed Precip Events Conditions
12:58 AM 82.9 °F 90.8 °F 75.9 °F 79% 30.01 in 10.0 mi SW 18.4 mph - N/A   Mostly Cloudy
1:58 AM 80.1 °F 85.4 °F 75.9 °F 87% 30.01 in 10.0 mi SSW 13.8 mph - 0.02 in   Mostly Cloudy
2:17 AM 80.1 °F 84.5 °F 73.9 °F 81% 30.00 in 10.0 mi SSW 19.6 mph 28.8 mph N/A Thunderstorm Partly Cloudy
2:34 AM 81.0 °F 86.7 °F 75.0 °F 82% 29.99 in 10.0 mi SW 15.0 mph - 0.00 in   Mostly Cloudy
2:49 AM 81.0 °F 86.7 °F 75.0 °F 82% 30.00 in 8.0 mi SSW 21.9 mph 29.9 mph 0.00 in Thunderstorm Mostly Cloudy
2:58 AM 80.1 °F 85.4 °F 75.9 °F 87% 30.00 in 9.0 mi SSW 17.3 mph 26.5 mph 0.00 in Rain , Thunderstorm Light Rain
3:19 AM 80.1 °F 85.4 °F 75.9 °F 87% 29.99 in 10.0 mi South 23.0 mph 32.2 mph 0.00 in   Mostly Cloudy
3:29 AM 80.1 °F 85.1 °F 75.0 °F 85% 29.99 in 10.0 mi South 19.6 mph 31.1 mph 0.00 in Thunderstorm Mostly Cloudy
3:58 AM 80.1 °F 85.4 °F 75.9 °F 87% 29.99 in 7.0 mi SSW 16.1 mph - 0.02 in Rain , Thunderstorm Light Rain
4:07 AM 80.1 °F 85.4 °F 75.9 °F 87% 29.97 in 7.0 mi South 15.0 mph - 0.01 in Rain , Thunderstorm Light Thunderstorms and Rain
4:22 AM 80.1 °F 85.4 °F 75.9 °F 87% 29.96 in 6.0 mi South 12.7 mph - 0.02 in Rain Light Rain
4:58 AM 79.0 °F - 75.0 °F 88% 29.97 in 7.0 mi SSW 13.8 mph - 0.08 in Rain , Thunderstorm Light Rain
5:15 AM 80.1 °F 85.4 °F 75.9 °F 87% 29.96 in 10.0 mi SW 18.4 mph 24.2 mph 0.00 in   Overcast
5:34 AM 80.1 °F 85.1 °F 75.0 °F 85% 29.96 in 10.0 mi SW 10.4 mph - 0.00 in Thunderstorm Overcast
5:47 AM 78.1 °F - 75.0 °F 90% 29.97 in 10.0 mi West 13.8 mph 28.8 mph 0.00 in Rain , Thunderstorm Light Rain
5:58 AM 77.0 °F - 73.9 °F 90% 29.98 in 1.2 mi SW 21.9 mph 31.1 mph 0.23 in Rain , Thunderstorm Heavy Rain
6:01 AM 77.0 °F - 73.9 °F 90% 29.97 in 1.0 mi SW 17.3 mph 31.1 mph 0.07 in Rain , Thunderstorm Heavy Thunderstorms and Rain
6:09 AM 78.1 °F - 75.0 °F 90% 29.97 in 2.0 mi SSW 16.1 mph 26.5 mph 0.13 in Rain , Thunderstorm Light Thunderstorms and Rain
6:16 AM 79.0 °F - 75.9 °F 90% 29.97 in 8.0 mi SSW 12.7 mph - 0.13 in Rain , Thunderstorm Light Thunderstorms and Rain
6:27 AM 80.1 °F 85.4 °F 75.9 °F 87% 29.97 in 10.0 mi SW 13.8 mph 20.7 mph 0.13 in Thunderstorm Overcast
6:43 AM 80.1 °F 85.4 °F 75.9 °F 87% 29.96 in 10.0 mi WSW 15.0 mph - 0.13 in   Overcast
6:58 AM 80.1 °F 85.4 °F 75.9 °F 87% 29.97 in 10.0 mi SW 17.3 mph 20.7 mph 0.14 in   Mostly Cloudy
7:09 AM 80.1 °F 85.4 °F 75.9 °F 87% 29.98 in 9.0 mi SSW 16.1 mph 25.3 mph N/A   Mostly Cloudy
7:55 AM 78.8 °F - 75.2 °F 89% 29.98 in 6.0 mi SSW 19.6 mph 33.4 mph 0.05 in Rain Light Rain
7:58 AM 79.0 °F - 75.9 °F 90% 29.99 in 4.0 mi SW 20.7 mph 33.4 mph 0.06 in Rain Rain
8:21 AM 79.0 °F - 77.0 °F 94% 29.99 in 10.0 mi SW 21.9 mph 29.9 mph 0.00 in Thunderstorm Overcast
8:31 AM 80.1 °F 85.8 °F 77.0 °F 90% 29.99 in 6.0 mi SW 20.7 mph 28.8 mph 0.00 in Rain , Thunderstorm Light Rain
8:44 AM 79.0 °F - 77.0 °F 94% 29.98 in 3.0 mi West 11.5 mph - 0.04 in Rain Heavy Rain
8:58 AM 79.0 °F - 77.0 °F 94% 29.99 in 7.0 mi West 10.4 mph 20.7 mph 0.05 in Rain Light Rain
9:08 AM 79.0 °F - 77.0 °F 94% 29.98 in 7.0 mi West 10.4 mph - 0.01 in Rain Light Rain
9:48 AM 79.0 °F - 77.0 °F 94% 30.01 in 10.0 mi WSW 10.4 mph - 0.02 in Rain Light Rain
9:58 AM 79.0 °F - 75.9 °F 90% 30.01 in 10.0 mi West 9.2 mph - 0.02 in Rain Light Rain
10:51 AM 80.1 °F 85.4 °F 75.9 °F 87% 30.02 in 10.0 mi West 11.5 mph - 0.00 in   Overcast
10:58 AM 81.0 °F 87.9 °F 77.0 °F 88% 30.02 in 10.0 mi West 10.4 mph - 0.00 in   Overcast
11:47 AM 80.1 °F 85.1 °F 75.0 °F 85% 30.03 in 10.0 mi West 9.2 mph - N/A   Scattered Clouds
11:58 AM 80.1 °F 85.1 °F 75.0 °F 85% 30.04 in 10.0 mi West 8.1 mph - N/A   Scattered Clouds
12:25 PM 81.0 °F 87.3 °F 75.9 °F 85% 30.03 in 10.0 mi West 8.1 mph - N/A   Mostly Cloudy
12:37 PM 82.0 °F 89.4 °F 75.9 °F 82% 30.03 in 10.0 mi WSW 8.1 mph - N/A   Scattered Clouds
12:58 PM 82.9 °F 90.8 °F 75.9 °F 79% 30.04 in 10.0 mi West 8.1 mph - N/A   Scattered Clouds
1:55 PM 82.4 °F 89.5 °F 75.2 °F 79% 30.03 in 10.0 mi WSW 9.2 mph - N/A   Mostly Cloudy
1:58 PM 82.9 °F 90.8 °F 75.9 °F 79% 30.03 in 10.0 mi SW 10.4 mph - N/A   Mostly Cloudy
2:19 PM 84.0 °F 93.7 °F 77.0 °F 79% 30.03 in 10.0 mi SW 11.5 mph - N/A   Mostly Cloudy
2:58 PM 84.0 °F 92.6 °F 75.9 °F 76% 30.02 in 10.0 mi SW 11.5 mph - N/A   Mostly Cloudy
3:58 PM 84.9 °F 95.3 °F 77.0 °F 77% 30.01 in 10.0 mi SW 13.8 mph - N/A   Clear
4:58 PM 84.9 °F 94.1 °F 75.9 °F 74% 30.00 in 10.0 mi SW 15.0 mph - N/A   Clear
5:58 PM 84.0 °F 92.6 °F 75.9 °F 76% 29.99 in 10.0 mi SSW 11.5 mph - N/A   Clear
6:58 PM 82.9 °F 90.8 °F 75.9 °F 79% 29.99 in 10.0 mi SSW 10.4 mph - N/A   Partly Cloudy
7:58 PM 82.0 °F 89.4 °F 75.9 °F 82% 30.00 in 10.0 mi SSW 13.8 mph - N/A   Mostly Cloudy
8:58 PM 82.0 °F 89.4 °F 75.9 °F 82% 30.01 in 10.0 mi SW 15.0 mph - N/A   Scattered Clouds
9:58 PM 82.0 °F 90.2 °F 77.0 °F 85% 30.02 in 10.0 mi SW 12.7 mph - N/A   Scattered Clouds
10:58 PM 82.0 °F 89.4 °F 75.9 °F 82% 30.04 in 10.0 mi SW 12.7 mph - N/A   Scattered Clouds
11:58 PM 82.0 °F 90.2 °F 77.0 °F 85% 30.03 in 10.0 mi SW 9.2 mph - N/A   Clear